Regional Weather Roundup
Issued by NWS Little Rock, AR

Home | Current Version | Previous Version | Text Only | Print | Product List | Glossary On
Versions: 1 2 3 4 5 6 7 8 9 10 11 12 13 14 15 16 17 18 19 20 21 22 23 24 25 26 27 28 29 30 31 32 33 34 35 36 37 38 39 40 41 42 43 44 45 46 47 48 49 50
000
ASUS44 KLZK 292305
RWRLZK

WEATHER ROUNDUP FOR ARKANSAS
NATIONAL WEATHER SERVICE LITTLE ROCK AR
600 PM CDT TUE JUL 29 2014

NOTE: "FAIR" INDICATES FEW OR NO CLOUDS BELOW 12,000 FEET WITH NO
SIGNIFICANT WEATHER AND/OR OBSTRUCTIONS TO VISIBILITY.

ARZ001-003-010-029-300000-
NORTHWEST ARKANSAS

CITY           SKY/WX    TMP DP  RH WIND       PRES   REMARKS
FAYETTEVILLE   PTSUNNY   80  60  50 N8        30.12F
FORT SMITH     CLOUDY    88  62  41 W5        30.07F HX  88
HARRISON       PTSUNNY   79  60  52 NW3       30.12F
BENTONVILLE    PTSUNNY   79  59  50 N6        30.14F
ROGERS         CLOUDY    78  60  53 NW7       30.14F
SILOAM SPGS    MOSUNNY   81  57  44 N7        30.13F
HIGHFILL       PTSUNNY   79  60  52 N7        30.13F
SPRINGDALE     PTSUNNY   81  59  47 NW8       30.14F
$$

ARZ004-005-016-300000-
NORTH CENTRAL ARKANSAS

CITY           SKY/WX    TMP DP  RH WIND       PRES   REMARKS
BATESVILLE     SUNNY     82  59  44 E5        30.10S
FLIPPIN        SUNNY     84  55  37 N7        30.10F
MTN HOME       PTSUNNY   81  56  42 CALM      30.10F
$$

ARZ040-041-300000-
WEST CENTRAL ARKANSAS

CITY           SKY/WX    TMP DP  RH WIND       PRES   REMARKS
MENA           MOSUNNY   86  64  48 NE3       30.12S HX  87
MOUNT IDA      SUNNY     82  64  54 VRB3      30.09F
$$

ARZ009-017-025-026-028-300000-
NORTHEAST ARKANSAS

CITY           SKY/WX    TMP DP  RH WIND       PRES   REMARKS
CORNING        FAIR      77  57  50 S8        30.11F
JONESBORO      SUNNY     78  58  49 NE7       30.10F
NEWPORT        SUNNY     80  58  46 E7        30.11F
WALNUT RIDGE   SUNNY     79  57  47 E8        30.09F
BLYTHEVILLE    MOSUNNY   77  55  46 NE9       30.11F
$$

ARZ022-023-033-042-044-300000-
CENTRAL ARKANSAS

CITY           SKY/WX    TMP DP  RH WIND       PRES   REMARKS
LITTLE ROCK    MOSUNNY   84  54  35 CALM      30.09F
N LITTLE ROCK  MOSUNNY   82  62  51 NE3       30.09F
JACKSONVILLE   SUNNY     83  60  44 N5        30.09F
SEARCY         MOSUNNY   82  61  49 N7        30.10F
HOT SPRINGS    CLOUDY    82  63  52 N3        30.10S
RUSSELLVILLE   PTSUNNY   84  61  45 SW3       30.09F
CLINTON        FAIR      82  61  47 CALM      30.10F
$$

ARZ036-300000-
EAST ARKANSAS

CITY           SKY/WX    TMP DP  RH WIND       PRES   REMARKS
WEST MEMPHIS   MOSUNNY   78  58  49 N10       30.10S
$$

ARZ050-053-066-070-073-300000-
SOUTHWEST ARKANSAS

CITY           SKY/WX    TMP DP  RH WIND       PRES   REMARKS
ARKADELPHIA    FAIR      84  67  56 E5        30.09S HX  86
CAMDEN         SUNNY     86  63  45 NE8       30.08S HX  87
TEXARKANA      SUNNY     86  64  47 NE6       30.08S HX  87
EL DORADO      SUNNY     86  65  49 NE8       30.07F HX  88
DE QUEEN       CLOUDY    85  67  54 SW5       30.06S HX  87
$$

ARZ056-057-069-300000-
SOUTHEAST ARKANSAS

CITY           SKY/WX    TMP DP  RH WIND       PRES   REMARKS
PINE BLUFF     SUNNY     82  57  42 NE10      30.10F
STUTTGART      SUNNY     81  57  44 NE8       30.11F
MONTICELLO     SUNNY     83  59  44 NE7       30.08F

$$




USA.gov is the U.S. government's official web portal to all federal, state and local government web resources and services.